QPF
0.00 0.00 0.00 0.01 0.01 0.01 0.01 0.01 0.02 0.02 0.02 0.02 0.03 0.02 0.02 0.02 0.02 0.02 0.02 0.02 0.02 0.04 0.05 0.04 0.05 0.04 0.04 0.02 0.01 0.01 0.01 0.01 0.01 0.01 0.01 0.01 0.01 0.01 0.01 0.01 0.01 0.01 0.01
0.00 0.00 0.00 0.01 0.01 0.01 0.01 0.02 0.01 0.01 0.02 0.02 0.02 0.02 0.02 0.02 0.02 0.02 0.02 0.02 0.02 0.02 0.04 0.04 0.05 0.05 0.04 0.03 0.01 0.01 0.01 0.01 0.01 0.01 0.00 0.01 0.01 0.01 0.01 0.01 0.01 0.02 0.02
0.00 0.00 0.00 0.01 0.01 0.01 0.01 0.01 0.01 0.01 0.01 0.02 0.02 0.02 0.02 0.02 0.02 0.02 0.03 0.03 0.02 0.02 0.02 0.03 0.04 0.04 0.04 0.03 0.01 0.01 0.01 0.01 0.00 0.00 0.01 0.01 0.02 0.02 0.01 0.01 0.02 0.02 0.02
0.00 0.00 0.00 0.01 0.01 0.01 0.01 0.01 0.02 0.02 0.01 0.02 0.02 0.02 0.02 0.02 0.02 0.02 0.03 0.03 0.03 0.02 0.01 0.02 0.03 0.04 0.04 0.04 0.03 0.02 0.02 0.01 0.01 0.01 0.01 0.01 0.01 0.02 0.02 0.02 0.02 0.01 0.01
0.00 0.01 0.01 0.01 0.02 0.02 0.01 0.02 0.02 0.01 0.01 0.01 0.02 0.02 0.02 0.02 0.02 0.02 0.03 0.03 0.02 0.02 0.02 0.02 0.02 0.03 0.03 0.04 0.04 0.04 0.03 0.02 0.02 0.01 0.00 0.00 0.01 0.02 0.01 0.01 0.01 0.01 0.01
0.00 0.01 0.01 0.01 0.02 0.02 0.02 0.02 0.01 0.01 0.01 0.01 0.02 0.02 0.02 0.02 0.02 0.02 0.02 0.02 0.02 0.02 0.02 0.02 0.02 0.03 0.04 0.05 0.05 0.04 0.03 0.02 0.01 0.00 0.00 0.00 0.01 0.01 0.01 0.01 0.01 0.01 0.01
0.00 0.01 0.02 0.03 0.03 0.03 0.03 0.03 0.01 0.01 0.01 0.01 0.01 0.02 0.03 0.02 0.03 0.03 0.02 0.02 0.02 0.02 0.02 0.02 0.03 0.04 0.05 0.04 0.05 0.05 0.03 0.02 0.01 0.00 0.00 0.00 0.01 0.01 0.01 0.01 0.01 0.01 0.01
0.00 0.01 0.02 0.03 0.04 0.04 0.05 0.04 0.02 0.01 0.01 0.02 0.01 0.02 0.03 0.03 0.03 0.04 0.04 0.02 0.02 0.02 0.02 0.03 0.03 0.04 0.05 0.06 0.06 0.06 0.03 0.02 0.01 0.00 0.00 0.00 0.01 0.01 0.01 0.01 0.01 0.01 0.01
0.01 0.01 0.03 0.04 0.04 0.05 0.05 0.05 0.03 0.01 0.01 0.02 0.02 0.02 0.02 0.02 0.03 0.04 0.05 0.03 0.02 0.02 0.02 0.03 0.03 0.04 0.06 0.07 0.07 0.07 0.05 0.03 0.01 0.00 0.00 0.00 0.00 0.01 0.01 0.01 0.01 0.01 0.01
0.01 0.02 0.03 0.05 0.05 0.05 0.05 0.05 0.04 0.02 0.01 0.02 0.02 0.02 0.02 0.02 0.02 0.04 0.05 0.05 0.03 0.02 0.02 0.02 0.03 0.04 0.04 0.05 0.07 0.09 0.08 0.05 0.02 0.01 0.00 0.00 0.00 0.01 0.01 0.01 0.01 0.01 0.01
0.02 0.04 0.05 0.07 0.07 0.05 0.05 0.05 0.05 0.02 0.01 0.01 0.03 0.03 0.02 0.02 0.02 0.03 0.04 0.04 0.05 0.04 0.03 0.02 0.02 0.03 0.03 0.04 0.06 0.09 0.08 0.06 0.04 0.02 0.01 0.01 0.01 0.01 0.01 0.01 0.01 0.01 0.01
0.03 0.06 0.06 0.07 0.08 0.07 0.05 0.06 0.06 0.04 0.02 0.02 0.03 0.03 0.03 0.03 0.03 0.04 0.03 0.03 0.03 0.03 0.04 0.04 0.03 0.03 0.03 0.04 0.05 0.07 0.08 0.06 0.03 0.01 0.01 0.01 0.01 0.01 0.01 0.02 0.01 0.01 0.01
0.03 0.05 0.07 0.08 0.11 0.10 0.07 0.06 0.05 0.04 0.03 0.04 0.03 0.04 0.04 0.04 0.04 0.04 0.04 0.03 0.03 0.02 0.02 0.02 0.03 0.05 0.05 0.05 0.04 0.04 0.05 0.04 0.03 0.02 0.01 0.01 0.02 0.02 0.02 0.02 0.02 0.01 0.01
0.03 0.05 0.07 0.09 0.11 0.12 0.10 0.08 0.06 0.03 0.03 0.03 0.03 0.04 0.04 0.05 0.05 0.05 0.05 0.04 0.03 0.02 0.01 0.01 0.02 0.05 0.05 0.06 0.05 0.05 0.04 0.04 0.03 0.03 0.02 0.02 0.02 0.02 0.02 0.02 0.02 0.02 0.01
0.04 0.06 0.08 0.10 0.11 0.11 0.12 0.12 0.08 0.05 0.03 0.03 0.03 0.03 0.04 0.05 0.05 0.05 0.08 0.06 0.03 0.02 0.01 0.01 0.01 0.04 0.06 0.05 0.07 0.08 0.08 0.06 0.05 0.04 0.04 0.04 0.03 0.02 0.02 0.03 0.02 0.02 0.02
0.03 0.08 0.10 0.10 0.12 0.11 0.10 0.11 0.11 0.08 0.04 0.03 0.02 0.02 0.03 0.04 0.04 0.05 0.05 0.05 0.03 0.02 0.01 0.01 0.01 0.03 0.07 0.06 0.06 0.07 0.08 0.07 0.05 0.04 0.04 0.04 0.03 0.02 0.02 0.02 0.03 0.02 0.02
0.04 0.09 0.13 0.13 0.14 0.11 0.10 0.10 0.13 0.11 0.06 0.03 0.02 0.02 0.03 0.05 0.05 0.05 0.04 0.04 0.03 0.02 0.01 0.01 0.01 0.01 0.05 0.06 0.05 0.06 0.07 0.06 0.04 0.03 0.03 0.03 0.03 0.02 0.01 0.02 0.02 0.03 0.03
0.04 0.08 0.16 0.16 0.14 0.11 0.10 0.11 0.14 0.13 0.10 0.06 0.04 0.03 0.03 0.05 0.06 0.06 0.05 0.04 0.04 0.03 0.02 0.01 0.01 0.01 0.02 0.04 0.04 0.05 0.06 0.06 0.05 0.03 0.02 0.02 0.02 0.01 0.01 0.01 0.02 0.02 0.02
0.05 0.06 0.12 0.13 0.11 0.10 0.10 0.10 0.12 0.12 0.11 0.08 0.06 0.05 0.05 0.06 0.08 0.07 0.07 0.06 0.05 0.04 0.02 0.00 0.00 0.01 0.02 0.02 0.02 0.03 0.04 0.04 0.03 0.02 0.02 0.01 0.01 0.01 0.01 0.01 0.01 0.01 0.02
0.06 0.08 0.10 0.10 0.12 0.11 0.11 0.11 0.12 0.12 0.11 0.10 0.09 0.07 0.06 0.06 0.08 0.08 0.07 0.07 0.06 0.05 0.03 0.01 0.00 0.01 0.03 0.03 0.02 0.02 0.02 0.03 0.02 0.01 0.01 0.01 0.01 0.01 0.01 0.01 0.01 0.01 0.01
0.05 0.09 0.11 0.11 0.12 0.13 0.11 0.10 0.10 0.10 0.08 0.10 0.10 0.09 0.08 0.07 0.08 0.09 0.08 0.07 0.07 0.06 0.03 0.01 0.00 0.01 0.02 0.04 0.03 0.02 0.02 0.02 0.01 0.01 0.01 0.01 0.01 0.01 0.01 0.01 0.01 0.01 0.01
0.04 0.07 0.10 0.12 0.14 0.15 0.13 0.09 0.08 0.09 0.07 0.08 0.10 0.10 0.10 0.09 0.09 0.10 0.10 0.08 0.07 0.06 0.04 0.02 0.01 0.02 0.03 0.04 0.05 0.03 0.02 0.02 0.01 0.00 0.00 0.00 0.00 0.00 0.00 0.00 0.00 0.01 0.01
0.04 0.06 0.08 0.11 0.15 0.17 0.15 0.13 0.10 0.11 0.10 0.09 0.10 0.11 0.11 0.10 0.09 0.09 0.11 0.11 0.09 0.07 0.05 0.03 0.03 0.04 0.04 0.04 0.04 0.04 0.02 0.02 0.01 0.00 0.00 0.00 0.00 0.00 0.01 0.01 0.01 0.01 0.01
0.04 0.06 0.07 0.08 0.12 0.16 0.16 0.15 0.12 0.09 0.08 0.09 0.09 0.10 0.10 0.11 0.10 0.09 0.09 0.11 0.09 0.08 0.06 0.04 0.04 0.05 0.05 0.05 0.05 0.05 0.03 0.01 0.01 0.01 0.00 0.00 0.00 0.01 0.01 0.01 0.01 0.01 0.01
0.04 0.05 0.08 0.09 0.09 0.11 0.12 0.15 0.14 0.12 0.10 0.10 0.11 0.11 0.11 0.10 0.10 0.11 0.09 0.11 0.11 0.08 0.06 0.05 0.04 0.04 0.05 0.05 0.06 0.06 0.04 0.02 0.01 0.01 0.01 0.00 0.00 0.00 0.01 0.00 0.00 0.01 0.01
0.06 0.05 0.08 0.13 0.09 0.08 0.09 0.13 0.14 0.11 0.11 0.11 0.10 0.10 0.10 0.10 0.10 0.11 0.10 0.11 0.12 0.10 0.05 0.03 0.03 0.03 0.03 0.05 0.06 0.06 0.05 0.03 0.01 0.01 0.01 0.01 0.01 0.00 0.00 0.01 0.01 0.00 0.00
MSLP
1007.24 1007.43 1007.48 1007.44 1007.34 1007.24 1007.15 1007.09 1007.06 1007.03 1006.98 1006.92 1006.83 1006.74 1006.67 1006.65 1006.70 1006.83 1007.05 1007.33 1007.66 1008.01 1008.37 1008.74 1009.11 1009.49 1009.87 1010.26 1010.63 1010.99 1011.31 1011.59 1011.83 1012.03 1012.20 1012.38 1012.56 1012.77 1013.00 1013.24 1013.49 1013.72 1013.94
1007.01 1007.17 1007.23 1007.24 1007.23 1007.22 1007.22 1007.24 1007.25 1007.24 1007.20 1007.12 1007.01 1006.90 1006.80 1006.76 1006.79 1006.90 1007.08 1007.33 1007.62 1007.94 1008.28 1008.63 1009.00 1009.37 1009.77 1010.17 1010.56 1010.95 1011.30 1011.63 1011.91 1012.16 1012.40 1012.62 1012.85 1013.08 1013.32 1013.57 1013.82 1014.06 1014.29
1006.71 1006.83 1006.90 1006.97 1007.04 1007.13 1007.22 1007.32 1007.39 1007.42 1007.39 1007.30 1007.17 1007.03 1006.91 1006.83 1006.81 1006.87 1007.00 1007.20 1007.45 1007.74 1008.06 1008.41 1008.78 1009.17 1009.58 1010.00 1010.43 1010.84 1011.23 1011.60 1011.94 1012.26 1012.56 1012.85 1013.12 1013.39 1013.66 1013.92 1014.17 1014.41 1014.65
1006.35 1006.44 1006.53 1006.64 1006.78 1006.96 1007.14 1007.30 1007.43 1007.49 1007.48 1007.40 1007.27 1007.11 1006.96 1006.83 1006.76 1006.76 1006.83 1006.97 1007.18 1007.44 1007.76 1008.11 1008.51 1008.93 1009.37 1009.81 1010.26 1010.70 1011.12 1011.53 1011.93 1012.31 1012.68 1013.03 1013.37 1013.69 1013.98 1014.25 1014.51 1014.75 1014.99
1005.98 1006.04 1006.15 1006.30 1006.50 1006.74 1006.97 1007.19 1007.35 1007.45 1007.46 1007.39 1007.26 1007.10 1006.92 1006.76 1006.64 1006.57 1006.58 1006.67 1006.84 1007.09 1007.41 1007.79 1008.22 1008.68 1009.16 1009.63 1010.10 1010.55 1011.00 1011.43 1011.87 1012.31 1012.74 1013.16 1013.56 1013.93 1014.26 1014.54 1014.80 1015.04 1015.28
1005.63 1005.70 1005.82 1006.01 1006.24 1006.50 1006.76 1006.99 1007.17 1007.27 1007.30 1007.25 1007.14 1006.99 1006.81 1006.62 1006.47 1006.36 1006.31 1006.36 1006.50 1006.74 1007.08 1007.49 1007.97 1008.47 1008.98 1009.48 1009.96 1010.42 1010.87 1011.32 1011.78 1012.26 1012.74 1013.23 1013.68 1014.10 1014.46 1014.77 1015.03 1015.26 1015.49
1005.34 1005.43 1005.59 1005.79 1006.03 1006.28 1006.52 1006.73 1006.89 1007.00 1007.03 1007.01 1006.93 1006.80 1006.64 1006.46 1006.28 1006.14 1006.05 1006.06 1006.18 1006.41 1006.77 1007.22 1007.75 1008.30 1008.85 1009.38 1009.87 1010.32 1010.76 1011.20 1011.67 1012.16 1012.69 1013.22 1013.73 1014.19 1014.59 1014.92 1015.19 1015.42 1015.65
1005.13 1005.27 1005.46 1005.67 1005.90 1006.11 1006.30 1006.46 1006.58 1006.66 1006.71 1006.71 1006.67 1006.59 1006.46 1006.30 1006.12 1005.94 1005.82 1005.79 1005.88 1006.11 1006.48 1006.97 1007.54 1008.15 1008.74 1009.30 1009.79 1010.24 1010.66 1011.08 1011.53 1012.03 1012.57 1013.14 1013.70 1014.21 1014.66 1015.02 1015.30 1015.54 1015.77
1004.99 1005.20 1005.42 1005.64 1005.84 1006.00 1006.12 1006.20 1006.27 1006.32 1006.37 1006.41 1006.42 1006.39 1006.31 1006.17 1005.99 1005.80 1005.63 1005.55 1005.60 1005.81 1006.19 1006.70 1007.32 1007.97 1008.61 1009.20 1009.71 1010.15 1010.55 1010.94 1011.37 1011.86 1012.41 1013.01 1013.61 1014.17 1014.66 1015.07 1015.39 1015.64 1015.87
1004.90 1005.18 1005.45 1005.67 1005.83 1005.93 1005.97 1005.98 1005.99 1006.01 1006.07 1006.14 1006.21 1006.25 1006.21 1006.10 1005.91 1005.68 1005.46 1005.32 1005.31 1005.48 1005.83 1006.36 1007.01 1007.72 1008.41 1009.04 1009.58 1010.02 1010.41 1010.79 1011.19 1011.67 1012.22 1012.83 1013.47 1014.08 1014.64 1015.10 1015.46 1015.75 1016.00
1004.83 1005.17 1005.47 1005.70 1005.82 1005.86 1005.83 1005.77 1005.74 1005.75 1005.82 1005.94 1006.06 1006.15 1006.16 1006.06 1005.85 1005.57 1005.27 1005.04 1004.95 1005.05 1005.38 1005.90 1006.58 1007.34 1008.10 1008.79 1009.37 1009.85 1010.25 1010.61 1011.00 1011.46 1012.00 1012.63 1013.30 1013.96 1014.58 1015.11 1015.53 1015.87 1016.15
1004.73 1005.13 1005.45 1005.67 1005.76 1005.75 1005.67 1005.57 1005.51 1005.53 1005.62 1005.79 1005.97 1006.10 1006.14 1006.04 1005.79 1005.43 1005.04 1004.69 1004.49 1004.51 1004.78 1005.29 1005.99 1006.81 1007.64 1008.41 1009.07 1009.61 1010.04 1010.41 1010.80 1011.24 1011.78 1012.41 1013.10 1013.82 1014.49 1015.09 1015.59 1015.99 1016.31
1004.58 1005.01 1005.35 1005.55 1005.62 1005.57 1005.46 1005.35 1005.29 1005.32 1005.46 1005.67 1005.89 1006.06 1006.10 1005.97 1005.67 1005.22 1004.71 1004.24 1003.91 1003.83 1004.02 1004.50 1005.22 1006.10 1007.02 1007.90 1008.66 1009.29 1009.78 1010.19 1010.59 1011.03 1011.56 1012.19 1012.89 1013.64 1014.38 1015.05 1015.62 1016.09 1016.47
1004.35 1004.79 1005.13 1005.32 1005.37 1005.32 1005.20 1005.10 1005.06 1005.12 1005.29 1005.54 1005.79 1005.97 1006.00 1005.83 1005.45 1004.90 1004.26 1003.65 1003.19 1002.99 1003.10 1003.55 1004.28 1005.22 1006.24 1007.24 1008.14 1008.88 1009.47 1009.95 1010.38 1010.83 1011.35 1011.97 1012.68 1013.44 1014.22 1014.95 1015.59 1016.14 1016.58
1004.03 1004.47 1004.80 1004.99 1005.04 1004.99 1004.89 1004.81 1004.80 1004.90 1005.10 1005.37 1005.63 1005.80 1005.79 1005.56 1005.09 1004.43 1003.67 1002.92 1002.33 1002.01 1002.04 1002.45 1003.19 1004.18 1005.31 1006.45 1007.50 1008.39 1009.11 1009.69 1010.17 1010.64 1011.16 1011.76 1012.46 1013.23 1014.02 1014.79 1015.50 1016.10 1016.61
1003.64 1004.08 1004.40 1004.58 1004.64 1004.62 1004.55 1004.51 1004.53 1004.66 1004.88 1005.14 1005.38 1005.50 1005.44 1005.14 1004.58 1003.82 1002.93 1002.06 1001.35 1000.92 1000.87 1001.23 1001.97 1003.02 1004.26 1005.54 1006.75 1007.82 1008.69 1009.39 1009.96 1010.47 1011.00 1011.59 1012.26 1013.01 1013.80 1014.58 1015.32 1015.98 1016.53
1003.20 1003.64 1003.97 1004.16 1004.24 1004.25 1004.22 1004.22 1004.27 1004.40 1004.61 1004.84 1005.02 1005.08 1004.95 1004.56 1003.92 1003.06 1002.07 1001.10 1000.28 999.76 999.64 999.95 1000.69 1001.79 1003.12 1004.54 1005.92 1007.16 1008.21 1009.06 1009.74 1010.32 1010.87 1011.44 1012.09 1012.80 1013.57 1014.35 1015.10 1015.77 1016.37
1002.75 1003.21 1003.55 1003.77 1003.88 1003.93 1003.94 1003.96 1004.03 1004.14 1004.31 1004.47 1004.57 1004.55 1004.32 1003.85 1003.12 1002.19 1001.13 1000.08 999.19 998.59 998.40 998.67 999.40 1000.52 1001.93 1003.47 1005.02 1006.44 1007.67 1008.68 1009.50 1010.16 1010.76 1011.34 1011.96 1012.63 1013.36 1014.11 1014.84 1015.52 1016.13
1002.33 1002.82 1003.19 1003.44 1003.59 1003.67 1003.72 1003.75 1003.81 1003.89 1003.98 1004.05 1004.04 1003.91 1003.58 1003.03 1002.24 1001.25 1000.15 999.06 998.12 997.47 997.23 997.45 998.16 999.29 1000.75 1002.40 1004.08 1005.67 1007.08 1008.26 1009.23 1010.00 1010.66 1011.27 1011.87 1012.52 1013.19 1013.89 1014.59 1015.25 1015.85
1001.98 1002.51 1002.91 1003.19 1003.38 1003.49 1003.55 1003.59 1003.61 1003.63 1003.63 1003.58 1003.45 1003.20 1002.77 1002.15 1001.31 1000.31 999.20 998.10 997.15 996.47 996.18 996.37 997.04 998.16 999.65 1001.36 1003.14 1004.87 1006.45 1007.80 1008.91 1009.81 1010.56 1011.21 1011.82 1012.44 1013.08 1013.73 1014.38 1015.00 1015.57
1001.70 1002.26 1002.69 1003.00 1003.22 1003.35 1003.42 1003.44 1003.42 1003.36 1003.25 1003.08 1002.83 1002.46 1001.94 1001.26 1000.41 999.41 998.32 997.25 996.31 995.63 995.33 995.47 996.10 997.19 998.67 1000.40 1002.25 1004.09 1005.79 1007.29 1008.55 1009.57 1010.41 1011.13 1011.77 1012.39 1013.00 1013.61 1014.21 1014.79 1015.33
1001.50 1002.08 1002.52 1002.85 1003.08 1003.22 1003.29 1003.28 1003.21 1003.06 1002.85 1002.56 1002.18 1001.71 1001.13 1000.41 999.56 998.60 997.57 996.55 995.66 995.01 994.69 994.80 995.38 996.42 997.86 999.58 1001.45 1003.34 1005.13 1006.73 1008.11 1009.26 1010.20 1011.00 1011.69 1012.33 1012.94 1013.53 1014.10 1014.64 1015.15
1001.34 1001.92 1002.36 1002.69 1002.91 1003.05 1003.11 1003.07 1002.94 1002.72 1002.42 1002.03 1001.56 1001.01 1000.38 999.65 998.82 997.92 996.97 996.04 995.21 994.60 994.30 994.39 994.91 995.88 997.24 998.91 1000.75 1002.64 1004.47 1006.14 1007.61 1008.85 1009.89 1010.78 1011.54 1012.23 1012.87 1013.47 1014.03 1014.56 1015.03
1001.20 1001.75 1002.16 1002.46 1002.67 1002.80 1002.84 1002.78 1002.62 1002.34 1001.97 1001.51 1000.97 1000.38 999.72 999.01 998.23 997.40 996.54 995.71 994.97 994.41 994.13 994.20 994.67 995.55 996.83 998.40 1000.17 1002.01 1003.83 1005.52 1007.04 1008.35 1009.48 1010.45 1011.29 1012.06 1012.75 1013.40 1013.99 1014.52 1014.99
1001.02 1001.51 1001.88 1002.14 1002.33 1002.45 1002.48 1002.42 1002.23 1001.94 1001.53 1001.03 1000.46 999.85 999.19 998.51 997.79 997.04 996.28 995.55 994.89 994.39 994.14 994.19 994.61 995.41 996.57 998.03 999.69 1001.45 1003.21 1004.88 1006.41 1007.77 1008.96 1010.01 1010.95 1011.80 1012.58 1013.30 1013.95 1014.52 1015.01
1000.77 1001.19 1001.49 1001.72 1001.89 1002.00 1002.04 1001.98 1001.81 1001.52 1001.11 1000.61 1000.04 999.44 998.81 998.16 997.51 996.83 996.16 995.51 994.93 994.49 994.26 994.30 994.66 995.38 996.44 997.77 999.31 1000.96 1002.63 1004.25 1005.76 1007.13 1008.36 1009.48 1010.51 1011.46 1012.34 1013.16 1013.90 1014.54 1015.07
Thickness
5751 5751 5749 5747 5746 5745 5743 5742 5741 5740 5739 5738 5738 5737 5736 5735 5734 5733 5732 5731 5730 5729 5729 5728 5727 5726 5725 5724 5723 5722 5722 5721 5720 5720 5719 5718 5717 5716 5715 5714 5713 5712 5711
5752 5749 5746 5745 5743 5742 5741 5739 5738 5737 5736 5735 5734 5733 5733 5732 5731 5730 5729 5728 5727 5727 5726 5725 5725 5723 5722 5721 5720 5719 5718 5718 5717 5717 5716 5715 5714 5713 5712 5711 5710 5708 5707
5750 5746 5743 5741 5740 5738 5737 5736 5734 5733 5732 5731 5730 5730 5729 5728 5727 5727 5726 5725 5724 5723 5723 5722 5722 5720 5719 5718 5716 5716 5715 5715 5714 5714 5713 5712 5711 5710 5708 5707 5706 5705 5704
5746 5743 5739 5737 5736 5735 5733 5732 5731 5729 5728 5727 5726 5725 5725 5724 5724 5723 5722 5722 5721 5720 5719 5719 5718 5717 5715 5714 5713 5713 5712 5712 5712 5711 5710 5708 5707 5706 5705 5703 5702 5701 5700
5742 5739 5736 5734 5732 5731 5729 5728 5727 5725 5724 5723 5722 5721 5720 5720 5719 5719 5718 5718 5717 5717 5716 5715 5714 5713 5712 5711 5710 5710 5709 5709 5708 5707 5706 5705 5703 5702 5701 5699 5698 5697 5696
5737 5734 5732 5730 5728 5727 5725 5724 5722 5721 5720 5719 5717 5717 5716 5715 5715 5714 5714 5713 5713 5712 5712 5711 5710 5710 5709 5708 5707 5706 5706 5706 5705 5704 5702 5701 5700 5699 5697 5695 5694 5693 5692
5731 5730 5726 5725 5723 5722 5720 5719 5718 5716 5715 5714 5713 5712 5711 5711 5710 5710 5709 5709 5709 5708 5708 5707 5707 5706 5705 5704 5704 5703 5702 5702 5701 5700 5699 5697 5696 5695 5693 5691 5690 5689 5687
5724 5723 5720 5718 5718 5716 5715 5713 5712 5711 5710 5709 5708 5707 5706 5706 5706 5705 5705 5705 5705 5704 5704 5703 5702 5702 5701 5701 5700 5700 5699 5698 5697 5696 5694 5693 5692 5690 5689 5687 5685 5684 5683
5717 5716 5714 5712 5711 5710 5709 5707 5706 5705 5704 5703 5703 5702 5701 5701 5701 5700 5700 5700 5700 5700 5699 5699 5698 5698 5697 5696 5696 5696 5695 5694 5693 5692 5690 5688 5687 5686 5684 5682 5681 5679 5678
5708 5709 5707 5706 5704 5704 5702 5701 5700 5698 5698 5697 5697 5696 5696 5695 5695 5695 5695 5695 5695 5695 5694 5694 5693 5693 5692 5692 5692 5692 5691 5690 5688 5687 5685 5683 5682 5681 5679 5677 5675 5674 5672
5698 5700 5700 5699 5698 5697 5696 5694 5692 5691 5691 5690 5690 5690 5690 5689 5689 5689 5689 5689 5689 5689 5689 5689 5689 5688 5688 5688 5688 5687 5686 5685 5684 5682 5680 5678 5677 5675 5673 5671 5670 5668 5667
5688 5690 5691 5691 5691 5690 5689 5688 5686 5685 5684 5684 5684 5684 5684 5684 5684 5684 5684 5684 5684 5684 5684 5683 5683 5683 5683 5683 5683 5682 5682 5681 5679 5677 5675 5673 5672 5670 5668 5666 5664 5662 5661
5680 5681 5682 5683 5683 5684 5683 5682 5681 5680 5679 5679 5679 5678 5678 5678 5678 5678 5678 5678 5678 5678 5678 5678 5678 5678 5678 5678 5678 5678 5677 5676 5674 5672 5670 5668 5666 5664 5663 5661 5659 5657 5655
5671 5672 5673 5674 5676 5677 5677 5676 5676 5676 5675 5674 5674 5673 5673 5672 5672 5672 5672 5672 5673 5673 5673 5673 5673 5673 5673 5673 5673 5673 5672 5670 5668 5666 5664 5662 5660 5658 5657 5655 5653 5651 5649
5662 5664 5665 5667 5668 5670 5671 5670 5670 5670 5670 5670 5669 5668 5667 5667 5666 5666 5667 5667 5667 5668 5668 5668 5668 5668 5667 5667 5667 5666 5665 5664 5662 5661 5658 5656 5654 5652 5650 5648 5647 5645 5643
5654 5655 5658 5660 5661 5663 5664 5664 5664 5664 5664 5664 5663 5662 5662 5661 5661 5660 5660 5661 5662 5662 5663 5663 5662 5662 5661 5660 5660 5659 5658 5657 5656 5654 5652 5650 5648 5645 5643 5641 5639 5638 5636
5647 5648 5650 5652 5654 5655 5657 5657 5658 5657 5658 5657 5657 5656 5656 5655 5655 5654 5654 5655 5656 5656 5656 5656 5656 5655 5654 5653 5653 5652 5651 5649 5649 5647 5645 5643 5641 5638 5636 5634 5632 5630 5628
5640 5641 5643 5644 5646 5647 5649 5650 5650 5650 5650 5650 5650 5650 5649 5648 5648 5648 5648 5648 5649 5650 5650 5650 5649 5647 5646 5645 5645 5645 5644 5643 5641 5639 5638 5637 5634 5631 5629 5626 5624 5621 5619
5631 5633 5635 5636 5637 5639 5642 5642 5642 5643 5643 5643 5643 5642 5642 5641 5641 5641 5641 5641 5642 5642 5643 5643 5642 5640 5638 5637 5637 5637 5636 5635 5634 5633 5631 5629 5626 5624 5621 5618 5615 5612 5610
5622 5624 5627 5628 5629 5632 5633 5634 5634 5635 5635 5635 5635 5635 5635 5635 5634 5634 5634 5634 5635 5635 5635 5635 5634 5633 5631 5630 5630 5630 5629 5629 5627 5625 5623 5621 5618 5616 5613 5610 5607 5604 5601
5612 5614 5617 5619 5621 5622 5625 5625 5625 5626 5627 5627 5628 5628 5629 5629 5628 5628 5627 5627 5628 5627 5627 5627 5626 5624 5623 5622 5620 5619 5620 5621 5619 5617 5615 5612 5610 5607 5605 5602 5599 5596 5593
5603 5605 5608 5611 5613 5614 5618 5619 5620 5620 5620 5621 5621 5621 5622 5622 5622 5622 5621 5620 5621 5620 5619 5619 5618 5616 5615 5614 5611 5609 5608 5609 5609 5609 5606 5604 5602 5600 5597 5594 5591 5588 5584
5594 5597 5601 5603 5605 5607 5611 5612 5611 5611 5612 5612 5613 5613 5614 5614 5615 5616 5616 5614 5614 5613 5611 5611 5610 5609 5607 5605 5604 5602 5599 5598 5598 5600 5599 5597 5594 5591 5588 5585 5582 5579 5576
5587 5590 5593 5595 5597 5601 5604 5603 5603 5604 5605 5606 5607 5606 5607 5607 5608 5608 5609 5608 5607 5605 5604 5603 5603 5601 5600 5597 5595 5595 5593 5592 5587 5587 5589 5588 5585 5582 5579 5577 5573 5570 5567
5581 5583 5585 5588 5590 5594 5597 5597 5597 5597 5598 5599 5599 5599 5599 5599 5600 5600 5601 5599 5599 5597 5596 5595 5594 5593 5592 5590 5587 5586 5584 5582 5581 5576 5575 5576 5575 5573 5571 5568 5564 5561 5558
5576 5577 5579 5582 5584 5587 5589 5591 5591 5591 5591 5590 5590 5590 5591 5591 5591 5592 5592 5591 5591 5589 5588 5587 5585 5584 5583 5580 5578 5577 5575 5573 5571 5566 5564 5564 5563 5563 5562 5559 5555 5552 5549